Location: Unspecified
(38.9820°N, 94.4650°W)
Time: 06:10:44
(UTC-05:00)

CZ-3 Stage 3 - Visible Passes

Search period start: 26 July 2014 00:00
Search period end: 05 August 2014 00:00
Orbit: 422 x 34830 km, 30.6° (Epoch: 25 July)

Date Brightness Start Highest point End Pass type
(mag) Time Alt. Az. Time Alt. Az. Time Alt. Az.
26 Jul 8.5 03:50:55 10° SSE 08:29:29 26° SSE 08:59:42 10° ESE visible
28 Jul 6.0 11:26:28 10° SW 12:30:20 40° S 12:37:36 10° ESE visible
29 Jul 7.0 03:35:05 10° SSE 08:30:19 28° SSE 08:59:00 10° ESE visible
31 Jul 6.0 11:29:09 10° SW 12:29:02 41° S 12:36:00 10° ESE visible
01 Aug 7.1 03:19:42 10° SSE 08:30:53 29° SSE 08:58:07 10° ESE visible
03 Aug 5.9 11:31:35 10° SW 12:27:40 43° S 12:34:21 10° ESE visible
04 Aug 7.3 03:04:45 10° SSE 08:31:14 31° SSE 08:57:05 10° ESE visible
